Oslo, Norwegen

04:49 AM CEST am 25. April 2017 (GMT +0200)
Oslo

Wetter Verlauf für ENFB - März, 2017

Change the Weather History Date:

Montag, März 20, 2017

  Actual Average Record
Temperature  
mittlereTemperatur 36 °F -  
Max. Temperatur 42 °F 43 °F 50 °F (2012)
Min.Temperatur 31 °F 27 °F 15 °F (1997)
Degree Days  
Heizgradtage 28    
Moisture  
Taupunkt 35 °F    
Average Humidity 80    
Maximum Humidity 93    
Minimum Humidity 61    
Niederschlag  
Niederschlag 0.02 inch - - ()
Luftdruck in Meereshöhe  
Luftdruck in Meereshöhe 29.00 inch    
Wind  
Windgeschwindigkeit 22 mph ()    
Max. Windgeschwindigkeit 47 mph    
Max Gust Speed 38 mph    
Sichtweite 6.0 Meilen    
Ereignisse Regen    
Averages and records for this station are not official NWS values.
T = Trace of Precipitation, MM = Missing Value Source: Averaged Metar Reports

Daily Weather History Graph

Daily Weather History Graph

Search for Another Location

Airport or City:

Trip Planner

Search our weather history database for the weather conditions in past years. The results will help you decide how hot, cold, wet, or windy it might be!

Date:

Astronomie

Mar. 20, 2017 Aufgang Untergang
Genaue Zeit 06:18 CET 18:31 CET
Bürgerliche Dämmerung 05:36 CET 19:13 CET
Nautische Dämmerung 04:46 CET 20:03 CET
Astronomische Dämmerung 03:51 CET 20:58 CET
Mond 02:17 CET (3/20) 09:45 CET (3/20)
Länge des sichtbaren Lichts 13h 36m
Tageslänge
12h 13m
Drittes Viertel, 52% of the Moon is Illuminated
Mrz 20
Drittes Viertel
Mrz 20
Letztes Viertel
Mrz 28
Neu
Apr 3
Erstes Viertel
Apr 11
Vollmond

Hourly Weather History & Observations

Zeit (CET) Temp. Windchill Taupunkt Feuchtigkeit Druck Sichtweite Wind Dir Windgeschwindigkeit Böengeschwindigkeit Precip Ereignisse Wetterzustand
12:00 AM 32 °F - 29 °F 86%  inch - West 2.2 mph - -  
12:20 AM 42.8 °F 31.0 °F 37.4 °F 81% 29.12 inch 6.2 mi Südwest 39.1 mph - N/A   Wolkig
12:50 AM 42.8 °F 31.0 °F 37.4 °F 81% 29.12 inch 6.2 mi Südwest 39.1 mph - N/A   Teils Wolkig
1:00 AM 32 °F - 30 °F 88%  inch - West-Nordwest 2.2 mph - -  
1:20 AM 42.8 °F 31.4 °F 37.4 °F 81% 29.12 inch 6.2 mi Südwest 35.7 mph - N/A   Teils Wolkig
1:50 AM 42.8 °F 31.1 °F 35.6 °F 76% 29.12 inch 6.2 mi Südwest 38.0 mph - N/A   Teils Wolkig
2:20 AM 42.8 °F 30.8 °F 33.8 °F 70% 29.12 inch 6.2 mi Südwest 40.3 mph - N/A Regen Leichte Regenschauer
2:50 AM 42.8 °F 30.8 °F 35.6 °F 76% 29.12 inch 6.2 mi West-Südwest 40.3 mph - N/A   Teils Wolkig
3:00 AM 31 °F - 29 °F 92%  inch - Südost 2.2 mph - -  
3:20 AM 44.6 °F 33.9 °F 37.4 °F 76% 29.15 inch 6.2 mi Südwest 35.7 mph - N/A   Teils Wolkig
3:50 AM 41.0 °F 28.5 °F 33.8 °F 76% 29.15 inch - West-Südwest 39.1 mph - N/A Regen Leichter Regen
4:00 AM 31 °F - 30 °F 93%  inch - Ost-Südost 4.5 mph - -  
4:20 AM 42.8 °F 31.4 °F 33.8 °F 70% 29.15 inch 6.2 mi West-Südwest 35.7 mph - N/A   Wolkig
4:50 AM 42.8 °F 31.6 °F 35.6 °F 76% 29.15 inch 6.2 mi West-Südwest 34.5 mph - N/A   Wolkig
5:00 AM 31 °F - 30 °F 93%  inch - Ost-Südost 6.7 mph - -  
5:20 AM 42.8 °F 31.8 °F 33.8 °F 70% 29.15 inch 6.2 mi West-Südwest 33.4 mph - N/A Regen Leichte Regenschauer
5:50 AM 42.8 °F 32.3 °F 35.6 °F 76% 29.15 inch 6.2 mi West-Südwest 29.9 mph - N/A   Teils Wolkig
6:00 AM 32 °F - 30 °F 90%  inch - Ost-Südost 4.5 mph - -  
6:20 AM 42.8 °F 33.1 °F 37.4 °F 81% 29.15 inch 6.2 mi Südwest 25.3 mph - N/A   Teils Wolkig
6:50 AM 42.8 °F 33.5 °F 37.4 °F 81% 29.15 inch 6.2 mi West-Südwest 23.0 mph - N/A Regen Leichter Regen
7:00 AM 32 °F - 30 °F 91%  inch - Südost 2.2 mph - -  
7:20 AM 42.8 °F 33.1 °F 35.6 °F 76% 29.15 inch 6.2 mi Südwest 25.3 mph - N/A   Teils Wolkig
8:00 AM 32 °F - 30 °F 90%  inch - Süd 4.5 mph - -  
8:20 AM 44.6 °F 35.3 °F 35.6 °F 71% 29.12 inch 6.2 mi Süd-Südwest 26.5 mph - N/A   Teils Wolkig
8:50 AM 44.6 °F 35.3 °F 35.6 °F 71% 29.15 inch 6.2 mi Süd-Südwest 26.5 mph - N/A   Teils Wolkig
9:00 AM 34 °F - 31 °F 86%  inch - Süd-Südost 6.7 mph - -  
9:20 AM 42.8 °F 32.9 °F 35.6 °F 76% 29.15 inch 6.2 mi Süd-Südwest 26.5 mph - N/A Regen Leichte Regenschauer
9:50 AM 44.6 °F 34.7 °F 37.4 °F 76% 29.12 inch 6.2 mi Süd-Südwest 29.9 mph - N/A   Teils Wolkig
10:00 AM 35 °F - 31 °F 78%  inch - Süd-Südost 6.7 mph - -  
10:20 AM 44.6 °F 33.8 °F 37.4 °F 76% 29.12 inch 6.2 mi Süd-Südwest 36.8 mph - N/A   Wolkig
10:50 AM 44.6 °F 34.4 °F 35.6 °F 71% 29.12 inch 6.2 mi Süd 32.2 mph - N/A   Wolkig
11:20 AM 44.6 °F 33.9 °F 37.4 °F 76% 29.09 inch 6.2 mi Süd 35.7 mph - N/A Regen Leichte Regenschauer
11:50 AM 44.6 °F 35.3 °F 37.4 °F 76% 29.09 inch 6.2 mi Süd 26.5 mph - N/A   Wolkig
12:00 PM 36 °F - 31 °F 74%  inch - Süd-Südost 4.5 mph - -  
12:20 PM 44.6 °F 33.6 °F 35.6 °F 71% 29.06 inch 6.2 mi Süd-Südost 38.0 mph - N/A Regen Leichte Regenschauer
12:50 PM 44.6 °F 33.5 °F 37.4 °F 76% 29.03 inch 6.2 mi Süd-Südost 39.1 mph - N/A Regen Leichter Regen
1:00 PM 38 °F - 31 °F 68%  inch - Ost-Südost 2.2 mph - -  
1:20 PM 44.6 °F 32.9 °F 37.4 °F 76% 29.00 inch 6.2 mi Süd-Südost 43.7 mph - N/A   Wolkig
1:50 PM 44.6 °F 32.6 °F 37.4 °F 76% 28.97 inch 6.2 mi Süd-Südost 47.2 mph - N/A Regen Leichte Regenschauer
2:20 PM 42.8 °F 30.4 °F 37.4 °F 81% 28.94 inch 6.2 mi Süd-Südost 43.7 mph - N/A Regen Leichter Regen
2:50 PM 42.8 °F 30.5 °F 39.2 °F 87% 28.94 inch 5.0 mi Süd-Südost 42.6 mph - N/A Regen Leichter Regen
3:20 PM 42.8 °F 32.1 °F 41.0 °F 93% 28.91 inch 6.2 mi Süd-Südost 31.1 mph - N/A   Wolkig
3:50 PM 44.6 °F 34.6 °F 39.2 °F 81% 28.88 inch 6.2 mi Süd-Südwest 31.1 mph - N/A   Wolkig
4:00 PM 36 °F - 31 °F 75%  inch - Südost 4.5 mph - -  
4:20 PM 44.6 °F 34.2 °F 35.6 °F 71% 28.88 inch 6.2 mi Südwest 33.4 mph - N/A   Teils Wolkig
4:50 PM 44.6 °F 34.7 °F 35.6 °F 71% 28.88 inch 6.2 mi Südwest 29.9 mph - N/A   Teils Wolkig
5:00 PM 35 °F - 31 °F 81%  inch - Südost 2.2 mph - -  
5:20 PM 44.6 °F 35.3 °F 33.8 °F 66% 28.88 inch 6.2 mi Süd-Südwest 26.5 mph - N/A   Teils Wolkig
5:50 PM 44.6 °F 34.6 °F 32.0 °F 61% 28.88 inch 6.2 mi Süd-Südwest 31.1 mph - N/A   Wolkig
6:20 PM 44.6 °F 34.4 °F 32.0 °F 61% 28.85 inch 6.2 mi Süd-Südwest 32.2 mph - N/A   Teils Wolkig
6:50 PM 42.8 °F 31.8 °F 33.8 °F 70% 28.85 inch 6.2 mi Süd-Südwest 33.4 mph - N/A Regen Leichte Regenschauer
7:00 PM 35 °F - 31 °F 82%  inch - Ost-Südost 4.5 mph - -  
7:20 PM 42.8 °F 32.9 °F 35.6 °F 76% 28.85 inch 6.2 mi Süd 26.5 mph 38.0 mph N/A Regen Leichte Regenschauer
7:50 PM 41.0 °F 30.0 °F 37.4 °F 87% 28.85 inch 3.7 mi Süd 28.8 mph - N/A Regen Leichte Regenschauer
8:00 PM 36 °F - 33 °F 87%  inch - Ost-Südost 2.2 mph - -  
8:20 PM 42.8 °F 31.9 °F 39.2 °F 87% 28.82 inch 6.2 mi Süd 32.2 mph - N/A Regen Leichter Regen
8:50 PM 42.8 °F 31.9 °F 39.2 °F 87% 28.80 inch 6.2 mi Süd 32.2 mph - N/A Regen Leichte Regenschauer
9:00 PM 36 °F - 34 °F 89%  inch - Ost 2.2 mph - -  
9:20 PM 42.8 °F 32.1 °F 41.0 °F 93% 28.80 inch 6.2 mi Süd 31.1 mph - N/A Regen Leichte Regenschauer
9:50 PM 42.8 °F 32.7 °F 41.0 °F 93% 28.77 inch 6.2 mi Süd-Südost 27.6 mph - N/A   Wolkig
10:00 PM 35 °F - 33 °F 89%  inch - Ost-Südost 2.2 mph - -  
10:20 PM 42.8 °F 34.5 °F 39.2 °F 87% 28.77 inch 1.8 mi Süd 18.4 mph - N/A Regen Leichte Regenschauer
10:50 PM 42.8 °F 38.6 °F 39.2 °F 87% 28.77 inch 6.2 mi Süd-Südwest 6.9 mph - N/A Regen Leichte Regenschauer
11:00 PM 34 °F - 32 °F 87%  inch - Ost-Südost 2.2 mph - -  
11:20 PM 42.8 °F 40.1 °F 39.2 °F 87% 28.77 inch 6.2 mi Nord-Nordwest 4.6 mph - N/A Regen Leichte Regenschauer
11:50 PM 42.8 °F 32.9 °F 39.2 °F 87% 28.77 inch 6.2 mi Nordwest 26.5 mph - N/A Regen Leichte Regenschauer